Location: *
(42.5628°N, 2.3633°E)
Time: 02:31:02
(UTC+00:00)

Cosmos 967 Rocket - Pass Details

Date: 30 March 2020
Orbit: 944 x 994 km, 65.8° (Epoch: 05 June)

Event Time Altitude Azimuth Distance (km) Brightness Sun altitude
Rises 20:13:02 0° 201° (SSW) 3,658 7.4 -21.5°
Reaches altitude 10° 20:15:35 10° 198° (SSW) 2,721 6.7 -22.0°
Maximum altitude 20:21:54 67° 118° (ESE) 1,064 4.4 -23.0°
Drops below altitude 10° 20:28:19 10° 37° (NE) 2,762 6.8 -24.0°
Sets 20:30:55 0° 35° (NE) 3,717 7.5 -24.4°
